Regional Weather Roundup
Issued by NWS

Home | Current Version | Previous Version | Graphics & Text | Print | Product List | Glossary On
Versions: 1 2 3 4 5 6 7 8 9 10 11 12 13 14 15 16 17 18 19 20 21 22 23 24 25 26 27 28 29 30 31 32 33 34 35 36 37 38 39 40 41 42 43 44 45 46 47 48 49 50
000
ASUS45 KBOI 070910
RWRID

IDAHO REGIONAL WEATHER ROUNDUP
NATIONAL WEATHER SERVICE BOISE ID
200 AM MST WED DEC 07 2016

NOTE: "FAIR" INDICATES FEW OR NO CLOUDS BELOW 12000 FEET
WITH NO SIGNIFICANT WEATHER AND/OR OBSTRUCTIONS TO VISIBILITY

IDZ012-014-071000-
SOUTHWEST IDAHO


CITY           SKY/WX    TMP DP  RH WIND       PRES   REMARKS
BOISE          CLEAR     16  13  88 CALM      30.20R
CALDWELL       NOT AVBL
MOUNTAIN HOME  FOG       17  15  95 NW7       30.18R VSB 3/4 WCI   7
$$

IDZ016-017-071000-
SOUTHCENTRAL IDAHO


CITY           SKY/WX    TMP DP  RH WIND       PRES   REMARKS
BURLEY         CLOUDY    19  16  88 W8        30.10R WCI   9
JEROME         CLOUDY    18  17  96 W10       30.11R WCI   6
TWIN FALLS     CLOUDY    19  14  81 SW14      30.11R WCI   6
$$

IDZ019>023-071000-
SOUTHEAST IDAHO


CITY           SKY/WX    TMP DP  RH WIND       PRES   REMARKS
IDAHO FALLS    CLOUDY    11   2  67 NW7       30.06R WCI   0
POCATELLO      LGT SNOW  18  15  88 W7        30.09R WCI   9
REXBURG        CLOUDY     6   0  76 NE5       30.04R WCI  -3
$$

IDZ006-010-011-018-031-032-071000-
CENTRAL IDAHO MOUNTAINS


CITY           SKY/WX    TMP DP  RH WIND       PRES   REMARKS
MCCALL         CLOUDY    10   5  80 CALM      30.05R
HAILEY         CLEAR      3   0  85 NW12      30.05R WCI -13
STANLEY          N/A     -9 -13  83 S3        29.99R
SALMON         CLOUDY    10   9  92 CALM      30.13R
CHALLIS        CLOUDY    10   7  87 CALM      30.06R
$$

IDZ002-004-006-007-026-071000-
NORTHERN IDAHO


CITY           SKY/WX    TMP DP  RH WIND       PRES   REMARKS
LEWISTON       CLOUDY    27  18  69 CALM      30.33R
LOWELL         NOT AVBL
COEUR D`ALENE  CLOUDY    20  16  84 E8        30.27R WCI  10
MULLAN PASS    FLURRIES   6   2  83 CALM      30.01R
$$



USA.gov is the U.S. government's official web portal to all federal, state and local government web resources and services.